DECAYED

STARLINK-1653, 46352 (Decayed)

Orbit data source: Space-Track

STARLINK-1653, 46352 was a payload satellite owned by SpaceX/Seattle (US) in LEO that was launched on Thu, 03 Sep 2020 UTC via an FALCON 9 launch vehicle from the Air Force Eastern Test Range (AFETR). Payload-class satellites include a variety of spacecraft equipped with specific instruments for various scientific and technological missions. These include communications satellites like Starlink; space stations such as the ISS; scientific satellites like the Hubble; Earth observation satellites from companies like Planet Labs, Umbra, and HawkEye 360; GPS; miniature CubeSats for education and research; and military/defense satellites.

Not visible in the next 10 days
Identifier
46352, 2020-062AD
Orbit
Decayed
Country
Flag of USUS
Related business
Manufacturer
SpaceX/Seattle
Mission
Decayed Commercial Communications
Bus & Motor
STARLINK, Unknown motor
Mass
260 kg wet, ~248 kg dry
Launch date (UTC)
2020-09-03 (6 years ago)
Launch vehicle
FALCON 9
Launch site
Air Force Eastern Test Range (AFETR)
Object type
Payload
Rocket body
Debris
Shape & HBR
Box + 1 Pan, 10.1 m
Radar Cross Section
13.562 m², Large (>1 m²)

Expand to show TLE details & history
Last TLE update: 1 month ago

TLE from 1 month ago
0 STARLINK-1653
1 46352U 20062AD  26231.88460071  .12413114  12543-4  28846-3 0  9995
2 46352  53.0114 224.3322 0002023 271.9859  88.0959 16.46426887330863
Epoch: 2026-08-19T21:13Z
TLE epoch observation values (Epoch: 2026-08-19T21:13:49.501Z)
Latitude
0.00006°
Longitude
-62.35567°
Altitude
149.646 km
Speed
7.818 km/s
True Right ascension
14h 57m 19s
True Declination
0° 00' 00"
Sunlit
Object was in daylight at epoch
Visualization orbit readout
Latitude
Unknown
Longitude
Unknown
Altitude
Unknown
Speed
Unknown
Apparent Right ascension
Unknown
Apparent Declination
Unknown
Sunlit
N/A
Visualization observer readout
Local Sidereal Time
20:09:09
Azimuth
Unknown
Elevation
Unknown
Doppler factor
Unknown
Orbital elements
Apogee altitude
150.376 km
Perigee altitude
147.735 km
Semi-major axis
6,527.193 km
Eccentricity
0.0002
Inclination
53.0114°
RAAN
224.3322°
Arg. of periapsis
271.9859°
True anomaly
88.11907°
Mean anomaly
88.0959°
Eccentric anomaly
88.10748°
Mean motion
4.11579 °/min
Orbital period
87.47 mins
BSTAR
0.00028846
Loading maneuver chart data...
Computing Atmospheric mass density...

Documentation

Showing up to 5 results
|